User: anonymous   Login
Location: Brachstadt
(48.6975°N, 10.6755°E)
Time: 20:13:42
(UTC+00:00)
Language:

Resurs 01 Rocket - Orbit

View from above orbital plane
View from above orbital plane
View from above satellite
View from above satellite

Ground track
Ground track

The orbit data is extracted from the following two-line orbital elements,

1 23343U 94074B   20332.74338392  .00000078  00000-0  18363-4 0  9998
2 23343  97.9781  24.1087 0006638 356.6515 141.9070 14.76848133402726
Epoch (UTC): 27 November 2020 17:50:28
Eccentricity: 0.0006638
inclination: 97.9781°
perigee height: 634 km
apogee height: 644 km
right ascension of ascending node: 24.1087°
argument of perigee: 356.6515°
revolutions per day: 14.76848133
mean anomaly at epoch: 141.9070°
orbit number at epoch: 40272

The dashed part of the orbit path shows where the satellite is in the earth's shadow,  

DLR